DateTimeUTC,F1_A11,F1_S11,BsB_S11,BsG_S11,BsR_S11,BbsB_S11,BbsG_S11,BbsR_S11,BaB_A11,BaG_A11,BaR_A11,Tu_S11,T_S11,Uu_S11,U_S11,P_S11,T1_A11
2021-07-26T02:00:00Z,00000200,20000000,,,,,,,-000.58,-000.18,-000.03,18.2,25.3,03.2,02.1,0673.0,31.1
2021-07-26T02:01:00Z,00000200,20000000,,,,,,,0000.31,-000.01,-000.02,18.2,25.3,02.9,01.9,0673.0,31.1
2021-07-26T02:02:00Z,00000200,20000000,,,,,,,-000.57,-000.36,0000.01,18.3,25.4,02.9,01.9,0673.0,31.1
2021-07-26T02:03:00Z,00000200,60000000,,,,,,,0000.00,-000.22,-000.61,18.3,25.4,02.9,01.9,0673.0,31.1
2021-07-26T02:04:00Z,00000200,40000000,0000.81,0000.25,-000.05,0000.06,-000.05,0000.14,-000.17,-000.19,0000.05,18.5,25.2,02.7,01.8,0673.9,31.1
2021-07-26T02:05:00Z,00000200,00000000,0000.59,0000.42,-000.20,0000.33,0000.00,0000.01,-000.57,-000.13,-000.07,18.6,25.2,02.7,01.8,0674.0,31.1
2021-07-26T02:06:00Z,00000200,00000000,0000.62,0000.01,0000.12,0000.21,0000.10,0000.13,0000.18,0000.01,-000.32,18.6,25.1,02.6,01.7,0674.0,31.1
2021-07-26T02:07:00Z,00000200,00000000,0000.71,0000.09,0000.22,-000.11,0000.02,0000.01,0000.03,-000.14,-000.12,18.5,25.1,02.6,01.8,0674.0,31.0
2021-07-26T02:08:00Z,00000200,00000000,0000.40,0000.00,0000.05,-000.23,-000.17,-000.31,-000.53,-000.04,-000.21,18.5,25.1,02.5,01.7,0674.0,31.1
2021-07-26T02:09:00Z,00000200,00000000,-000.03,0000.22,-000.17,0000.07,-000.07,-000.10,0000.24,0000.05,0000.27,18.4,25.1,02.5,01.6,0674.0,31.0
2021-07-26T02:10:00Z,00000200,00000000,0000.65,0000.19,-000.03,0000.53,0000.02,0000.02,0000.05,-000.15,-000.16,18.4,25.0,02.5,01.7,0674.0,31.0
2021-07-26T02:11:00Z,00000200,00000000,0000.08,0000.34,-000.17,0000.38,-000.11,-000.14,-000.05,-000.01,0000.11,18.4,25.0,02.6,01.7,0674.0,31.1
2021-07-26T02:12:00Z,00000200,00000000,0000.47,0000.31,-000.11,-000.00,0000.02,0000.00,-000.45,0000.14,-000.33,18.4,25.0,02.5,01.7,0674.0,31.1
2021-07-26T02:13:00Z,00000200,00000000,0000.45,0000.21,0000.18,-000.09,-000.12,0000.37,-000.01,-000.13,0000.19,18.4,25.0,02.5,01.7,0674.0,31.0
2021-07-26T02:14:00Z,00000200,00000000,0000.35,0000.27,-000.21,-000.44,0000.10,0000.19,0000.23,-000.24,-000.29,18.4,25.0,02.4,01.6,0674.0,31.0
2021-07-26T02:15:00Z,00000200,00000000,-000.05,0000.31,-000.12,0000.32,-000.01,0000.34,-000.03,-000.03,0000.19,18.4,25.0,02.4,01.6,0674.0,31.1
2021-07-26T02:16:00Z,00000200,00000000,0000.07,0000.23,-000.02,0000.16,0000.06,0000.05,-000.01,-000.09,-000.23,18.5,25.1,02.3,01.6,0674.0,31.1
2021-07-26T02:17:00Z,00000200,00000000,0000.31,0000.15,0000.21,0000.55,0000.27,-000.08,0000.01,0000.26,0000.38,18.6,25.1,02.4,01.6,0674.0,31.1
2021-07-26T02:18:00Z,00000200,00000000,0000.22,0000.26,0000.06,-000.09,0000.40,0000.12,0000.05,-000.26,0000.16,18.6,25.1,02.5,01.7,0674.0,31.1
2021-07-26T02:19:00Z,00000200,00000000,0000.45,0000.35,0000.09,0000.04,-000.10,0000.11,0000.33,0000.51,-000.49,18.6,25.1,02.4,01.6,0674.0,31.1
2021-07-26T02:20:00Z,00000200,00000000,0000.34,0000.14,-000.31,-000.14,0000.13,0000.07,-000.19,-000.29,-000.11,18.6,25.1,02.5,01.6,0674.0,31.1
2021-07-26T02:21:00Z,00000200,00000000,0000.24,0000.18,-000.20,-000.08,0000.01,0000.01,-000.14,-000.15,0000.23,18.5,25.0,02.5,01.7,0674.1,31.1
2021-07-26T02:22:00Z,00000200,00000000,0000.39,0000.18,-000.15,-000.39,0000.22,-000.08,-000.19,-000.18,-000.14,18.5,25.0,02.4,01.6,0674.1,31.1
2021-07-26T02:23:00Z,00000200,00000000,0000.04,-000.06,-000.21,-000.37,-000.03,-000.20,-000.27,-000.20,-000.07,18.5,25.0,02.4,01.6,0674.1,31.0
2021-07-26T02:24:00Z,00000200,00000000,0000.91,-000.09,0000.00,-000.14,0000.16,0000.07,-000.06,0000.37,0000.10,18.4,25.0,02.3,01.5,0674.1,31.0
2021-07-26T02:25:00Z,00000200,00000000,0000.90,0000.50,-000.36,0000.52,0000.21,-000.25,0000.05,-000.57,-000.27,18.4,25.0,02.3,01.6,0674.1,31.0
2021-07-26T02:26:00Z,00000200,00000000,0000.81,0000.21,-000.08,0000.35,0000.27,-000.05,-000.37,-000.07,-000.11,18.4,25.0,02.2,01.5,0674.1,31.0
2021-07-26T02:27:00Z,00000200,01000000,0000.53,0000.21,0000.09,0000.23,0000.15,0000.16,0000.38,0000.56,0000.36,18.4,24.9,02.1,01.4,0674.1,31.1
2021-07-26T02:28:00Z,00000200,00000000,0001.52,0000.39,0000.09,0000.28,-000.03,0000.25,-000.35,-000.44,-000.60,18.3,24.9,02.2,01.4,0674.1,31.0
2021-07-26T02:29:00Z,00000200,00000000,0000.22,0000.54,-000.04,0000.06,-000.09,0000.02,0000.20,0000.17,0000.34,18.3,24.9,02.1,01.4,0674.1,31.0
2021-07-26T02:30:00Z,00000200,00000000,0000.96,0000.12,0000.22,0000.72,-000.14,0000.43,-000.58,-000.54,-000.78,18.4,25.0,02.0,01.3,0674.2,31.1
2021-07-26T02:31:00Z,00000200,01000000,0000.70,0000.22,0000.33,0000.48,-000.23,0000.30,-000.89,-000.83,-000.38,18.4,25.0,01.8,01.2,0674.2,31.1
2021-07-26T02:32:00Z,00000200,01000000,0000.80,0000.26,-000.01,0000.42,0000.18,0000.17,-000.39,-000.38,-000.50,18.5,25.0,01.6,01.0,0674.2,31.1
2021-07-26T02:33:00Z,00000200,01000000,0000.34,0000.43,0000.21,0000.15,0000.09,0000.10,0000.11,0000.16,0000.35,18.5,25.0,01.5,01.0,0674.2,31.1
2021-07-26T02:34:00Z,00000200,01000000,0000.73,0000.49,0000.06,0000.50,0000.22,0000.01,-000.65,-000.45,-000.23,18.5,25.0,01.4,00.9,0674.2,31.1
2021-07-26T02:35:00Z,00000200,01000000,-000.22,0000.18,0000.22,-000.07,0000.14,0000.30,0000.32,0000.28,-000.18,18.4,25.0,01.3,00.9,0674.2,31.1
2021-07-26T02:36:00Z,00000200,01000000,0000.53,0000.37,0000.19,-000.21,-000.19,0000.07,0000.61,0000.48,0000.73,18.4,24.9,01.4,00.9,0674.2,31.0
2021-07-26T02:37:00Z,00000200,01000000,0000.87,0000.49,0000.41,-000.28,0000.12,0000.22,-000.37,-000.60,-000.76,18.4,24.9,01.4,00.9,0674.2,31.0
2021-07-26T02:38:00Z,00000200,01000000,0000.62,0000.43,0000.01,-000.12,0000.17,0000.05,-000.35,0000.03,-000.16,18.3,24.9,01.3,00.9,0674.2,31.0
2021-07-26T02:39:00Z,00000200,01000000,0000.38,0000.43,0000.19,0000.50,-000.06,-000.06,0000.81,0000.36,0000.73,18.3,24.9,01.4,00.9,0674.2,31.0
2021-07-26T02:40:00Z,00000200,01000000,0000.37,0000.62,0000.11,0000.35,-000.19,0000.15,-000.26,0000.11,-000.17,18.3,24.9,01.3,00.9,0674.2,31.0
2021-07-26T02:41:00Z,00000200,01000000,0000.74,0000.47,0000.18,-000.19,0000.32,0000.01,0000.64,0000.14,0000.09,18.2,24.9,01.4,01.0,0674.2,31.0
2021-07-26T02:42:00Z,00000200,01000000,0000.51,0000.44,0000.11,-000.30,-000.11,0000.12,-000.37,0000.19,0000.13,18.2,24.8,01.5,01.0,0674.2,31.0
2021-07-26T02:43:00Z,00000200,01000000,0001.19,0000.55,0000.10,0000.12,-000.01,0000.19,-000.10,0000.04,-000.21,18.2,24.8,01.6,01.1,0674.2,31.0
2021-07-26T02:44:00Z,00000200,01000000,0000.86,0000.21,0000.17,0000.35,-000.01,0000.07,0000.70,-000.11,0000.31,18.2,24.8,01.5,01.0,0674.2,31.0
2021-07-26T02:45:00Z,00000200,01000000,-000.17,-000.06,0000.31,-000.08,0000.03,0000.43,0000.64,0000.94,0000.78,18.2,24.8,01.7,01.1,0674.2,31.0
2021-07-26T02:46:00Z,00000200,00000000,0000.29,0000.11,-000.13,-000.26,-000.08,-000.02,0000.21,0000.23,-000.19,18.3,24.9,01.8,01.2,0674.2,31.0
2021-07-26T02:47:00Z,00000200,01000000,0000.68,0000.72,0000.30,0000.04,0000.14,0000.26,-000.34,-000.41,-000.26,18.4,24.9,01.9,01.2,0674.2,31.1
2021-07-26T02:48:00Z,00000200,01000000,0000.82,0000.30,-000.27,0000.52,0000.15,-000.11,-000.27,-000.12,0000.08,18.4,24.9,01.7,01.1,0674.2,31.1
2021-07-26T02:49:00Z,00000200,01000000,0000.93,0000.02,0000.18,0000.29,-000.02,0000.10,0000.41,0000.18,0000.20,18.4,24.9,01.6,01.1,0674.1,31.0
2021-07-26T02:50:00Z,00000200,01000000,0000.40,0000.07,0000.24,-000.15,0000.16,0000.01,0000.39,0000.13,-000.10,18.3,24.9,01.8,01.2,0674.2,31.0
2021-07-26T02:51:00Z,00000200,01000000,0001.23,0000.42,0000.32,0000.11,0000.16,0000.12,-000.13,-000.07,0000.37,18.3,24.9,01.8,01.2,0674.2,31.0
2021-07-26T02:52:00Z,00000200,01000000,-000.15,0000.13,0000.14,-000.04,0000.01,-000.16,-000.22,0000.04,-000.42,18.3,24.8,01.7,01.1,0674.2,31.0
2021-07-26T02:53:00Z,00000200,01000000,0000.28,0000.69,-000.05,0000.68,0000.05,0000.29,-000.44,-000.37,-000.10,18.2,24.8,01.7,01.1,0674.2,31.0
2021-07-26T02:54:00Z,00000200,01000000,0000.15,0000.28,-000.10,0000.50,0000.02,-000.23,0000.72,0000.40,0000.24,18.2,24.8,01.6,01.1,0674.2,31.0
2021-07-26T02:55:00Z,00000200,01000000,0000.35,0000.03,-000.01,-000.25,-000.02,0000.09,0000.19,0000.68,0000.30,18.2,24.8,01.8,01.2,0674.2,31.0
2021-07-26T02:56:00Z,00000200,01000000,0001.37,0000.03,0000.30,0000.14,0000.22,0000.31,-000.04,0000.04,0000.18,18.2,24.8,02.0,01.3,0674.2,31.0
2021-07-26T02:57:00Z,00000200,40000000,,,,,,,0000.60,0000.11,0000.21,18.2,24.8,01.6,01.1,0674.3,31.0
2021-07-26T02:58:00Z,00000200,60000000,,,,,,,-000.90,-000.99,-000.58,17.8,24.9,01.8,01.2,0673.3,31.0
2021-07-26T02:59:00Z,00000200,20000000,,,,,,,0000.03,0000.13,0000.10,17.8,25.0,01.7,01.1,0673.2,31.0
